Stations météo

réclame
Mon MeteoGroup
Baltasound, Grande-Bretagne (3002): Température de l'air & dewpoint: 17.10.2017 05:00:00 - 23.10.2017 05:00:00 (BST)Baltasound, Grande-Bretagne (3002): Température de l'air -20cm: 17.10.2017 05:00:00 - 23.10.2017 05:00:00 (BST)Baltasound, Grande-Bretagne (3002): Vitesse du vent & gusts: 17.10.2017 05:00:00 - 23.10.2017 05:00:00 (BST)Baltasound, Grande-Bretagne (3002): Direction du vent: 17.10.2017 05:00:00 - 23.10.2017 05:00:00 (BST)Baltasound, Grande-Bretagne (3002): reduced air pressure: 17.10.2017 05:00:00 - 23.10.2017 05:00:00 (BST)Baltasound, Grande-Bretagne (3002): visibility: 17.10.2017 05:00:00 - 23.10.2017 05:00:00 (BST)Baltasound, Grande-Bretagne (3002): Quantités de précipitations: 17.10.2017 05:00:00 - 23.10.2017 05:00:00 (BST)
Date & Time tt [°C] td [°C] tt -20cm [°C] ff [km/h] ff [knt] fx [km/h] fx [knt] dd ppp [hPa] vv [km] rr [mm]
23.10.2017 05:00:00 11,1 9,6 - 26 14 - - SE 1011,2 14 0,0
23.10.2017 04:00:00 10,6 9,0 - 28 15 - - SSE 1011,3 15 0,0
23.10.2017 03:00:00 10,9 9,2 - 22 12 - - SE 1011,4 15 0,0
23.10.2017 02:00:00 11,1 9,4 - 22 12 - - SE 1011,4 16 0,0
23.10.2017 01:00:00 10,5 8,9 - 18 10 - - SE 1011,3 21 0,0
23.10.2017 00:00:00 11,2 9,4 - 18 10 - - ESE 1011,1 19 0,0
22.10.2017 23:00:00 11,1 9,9 - 16 9 - - ESE 1011,0 17 0,0
22.10.2017 22:00:00 9,7 8,6 - 8 4 - - ESE 1010,8 9 0,0
22.10.2017 21:00:00 10,3 8,9 - 11 6 - - ESE 1010,7 10 -
22.10.2017 20:00:00 10,3 8,8 - 11 6 - - ESE 1010,2 13 0,0
22.10.2017 19:00:00 10,5 8,8 - 13 7 - - ESE 1009,6 12 0,0
22.10.2017 18:00:00 11,3 9,2 - 16 9 - - ESE 1008,8 13 0,0
22.10.2017 17:00:00 11,6 9,4 - 11 6 - - E 1008,4 10 0,0
22.10.2017 16:00:00 11,8 9,3 - 13 7 - - ESE 1007,7 15 0,0
22.10.2017 15:00:00 12,0 9,4 - 16 9 - - E 1007,3 13 0,0
22.10.2017 14:00:00 12,3 9,3 - 21 11 - - ESE 1007,0 15 0,0
22.10.2017 13:00:00 12,1 9,3 - 22 12 - - ESE 1006,6 17 0,0
22.10.2017 12:00:00 12,0 9,4 - 22 12 48 26 ESE 1006,1 10 0,0
22.10.2017 11:00:00 12,2 9,2 - 34 18 48 26 ESE 1005,7 11 0,0
22.10.2017 10:00:00 11,8 8,9 10,5 29 16 52 28 ESE 1005,1 14 0,0
22.10.2017 09:00:00 11,3 9,3 - 35 19 - - ESE 1004,5 12 0,0
22.10.2017 08:00:00 11,3 9,9 - 29 16 - - ESE 1003,7 10 0,0
22.10.2017 07:00:00 11,5 10,7 - 29 16 - - ESE 1003,4 10 1,2
22.10.2017 06:00:00 11,3 10,8 - 21 11 - - E 1002,9 5 0,2
22.10.2017 05:00:00 11,3 10,7 - 22 12 - - ESE 1002,7 6 0,4
22.10.2017 04:00:00 11,4 10,8 - 21 11 - - ESE 1002,3 5 -
22.10.2017 03:00:00 11,1 10,5 - 22 12 - - ESE 1002,0 5 0,0
22.10.2017 02:00:00 11,1 10,7 - 28 15 48 26 ESE 1001,7 6 0,0
22.10.2017 01:00:00 10,9 10,5 - 37 20 55 30 ESE 1001,4 7 0,0
22.10.2017 00:00:00 11,4 11,0 - 31 17 46 25 ESE 1001,0 7 0,0
21.10.2017 23:00:00 11,4 11,1 - 35 19 48 26 SE 1000,8 5 0,2
21.10.2017 22:00:00 11,3 11,1 - 37 20 57 31 SE 1000,4 2,5 0,2
21.10.2017 21:00:00 11,1 10,9 - 39 21 57 31 ESE 999,8 2,6 1,4
21.10.2017 20:00:00 11,1 10,8 - 41 22 70 38 ESE 999,7 3,9 0,8
21.10.2017 19:00:00 11,0 10,5 - 50 27 70 38 ESE 999,5 2,1 0,4
21.10.2017 18:00:00 11,3 10,7 - 52 28 76 41 ESE 999,5 3,6 1,0
21.10.2017 17:00:00 11,2 10,5 - 50 27 72 39 ESE 999,4 3,0 1,2
21.10.2017 16:00:00 11,2 10,5 - 52 28 72 39 ESE 999,6 3,9 0,2
21.10.2017 15:00:00 11,7 10,6 - 54 29 74 40 ESE 1000,0 8 0,0
21.10.2017 14:00:00 11,6 10,8 - 57 31 81 44 ESE 1000,3 4,0 0,4
21.10.2017 13:00:00 11,6 10,8 - 52 28 72 39 ESE 1000,4 2,1 0,0
21.10.2017 12:00:00 11,4 10,9 - 52 28 72 39 ESE 1000,9 3,4 0,4
21.10.2017 11:00:00 11,6 10,6 - 50 27 70 38 ESE 1001,2 5 0,2
21.10.2017 10:00:00 11,8 10,8 10,2 48 26 68 37 ESE 1001,8 8 0,0
21.10.2017 09:00:00 11,8 11,1 - 46 25 61 33 ESE 1002,1 5 0,0
21.10.2017 08:00:00 11,8 11,3 - 46 25 57 31 SE 1002,0 7 0,4
21.10.2017 07:00:00 11,8 11,2 - 41 22 59 32 SE 1002,1 7 -
21.10.2017 06:00:00 11,7 11,3 - 41 22 55 30 SE 1002,1 7 -
21.10.2017 05:00:00 11,7 11,5 - 39 21 55 30 SE 1002,0 6 -
21.10.2017 04:00:00 11,5 11,5 - 41 22 57 31 SE 1002,3 5 -
21.10.2017 03:00:00 11,6 11,5 - 34 18 - - SE 1002,7 1,6 -
21.10.2017 02:00:00 11,6 11,5 - 35 19 46 25 SE 1003,0 4,0 -
21.10.2017 01:00:00 11,7 11,6 - 34 18 - - SE 1003,0 5 -
21.10.2017 00:00:00 11,7 11,6 - 34 18 46 25 SSE 1003,2 5 -
20.10.2017 23:00:00 11,8 11,8 - 31 17 46 25 SSE 1003,4 5 -
20.10.2017 22:00:00 11,8 11,8 - 31 17 - - SSE 1003,3 0,8 -
20.10.2017 21:00:00 11,8 11,8 - 26 14 - - SSE 1003,2 1,3 0,8
20.10.2017 20:00:00 11,7 11,7 - 22 12 - - SSE 1003,1 2,3 0,4
20.10.2017 19:00:00 11,8 11,8 - 26 14 - - SSE 1002,8 0,8 0,0
20.10.2017 18:00:00 11,7 11,7 - 26 14 - - SSE 1002,3 0,6 0,0
20.10.2017 17:00:00 11,8 11,7 - 26 14 - - SSE 1001,9 0,6 0,0
20.10.2017 16:00:00 12,0 11,8 - 31 17 46 25 SSE 1001,9 6 0,0
20.10.2017 15:00:00 11,9 11,8 - 34 18 54 29 SSE 1002,0 4,3 0,0
20.10.2017 14:00:00 12,0 11,8 - 41 22 55 30 SSE 1001,8 2,8 0,0
20.10.2017 13:00:00 12,2 11,9 - 41 22 55 30 SSE 1001,6 5 0,0
20.10.2017 12:00:00 12,1 11,9 - 41 22 59 32 SSE 1001,3 4,0 0,0
20.10.2017 11:00:00 12,2 12,0 - 44 24 63 34 SSE 1000,9 5 0,0
20.10.2017 10:00:00 12,2 12,0 9,7 46 25 67 36 SSE 1000,2 6 0,0
20.10.2017 09:00:00 12,1 11,8 - 48 26 67 36 SSE 999,8 3,5 0,0
20.10.2017 08:00:00 12,0 11,8 - 50 27 68 37 SE 999,2 3,2 0,2
20.10.2017 07:00:00 12,0 11,8 - 48 26 67 36 SE 999,0 2,4 1,0
20.10.2017 06:00:00 11,9 11,7 - 42 23 59 32 ESE 999,5 4,0 3,0
20.10.2017 05:00:00 11,8 11,7 - 39 21 52 28 SE 1000,2 3,7 1,8
20.10.2017 04:00:00 11,9 11,7 - 41 22 55 30 SE 1001,0 5 0,4
20.10.2017 03:00:00 11,7 11,6 - 34 18 - - ESE 1001,9 4,4 1,2
20.10.2017 02:00:00 11,7 11,6 - 29 16 - - SE 1002,7 7 0,8
20.10.2017 01:00:00 11,5 11,4 - 28 15 - - ESE 1003,2 5 0,6
20.10.2017 00:00:00 11,4 11,3 - 31 17 48 26 ESE 1003,6 1,9 0,2
19.10.2017 23:00:00 11,3 11,1 - 37 20 55 30 ESE 1004,1 3,0 0,0
19.10.2017 22:00:00 11,1 10,8 - 41 22 57 31 ESE 1004,6 2,6 0,6
19.10.2017 21:00:00 11,1 10,7 - 41 22 57 31 ESE 1005,1 5 0,2
19.10.2017 20:00:00 11,1 10,8 - 42 23 59 32 ESE 1005,2 6 0,0
19.10.2017 19:00:00 11,0 10,8 - 44 24 55 30 SE 1005,7 4,2 0,2
19.10.2017 18:00:00 10,9 10,7 - 39 21 57 31 SE 1006,2 2,0 0,6
19.10.2017 17:00:00 11,0 10,6 - 37 20 54 29 ESE 1006,6 4,1 0,8
19.10.2017 16:00:00 11,0 10,4 - 34 18 48 26 SE 1007,1 7 0,4
19.10.2017 15:00:00 11,0 9,8 - 35 19 48 26 SE 1007,9 13 0,0
19.10.2017 14:00:00 11,1 9,5 - 37 20 50 27 SE 1008,2 16 0,0
19.10.2017 13:00:00 11,0 9,3 - 35 19 52 28 SE 1008,6 13 0,0
19.10.2017 12:00:00 10,8 9,3 - - - - - - 1009,0 12 0,0
19.10.2017 11:00:00 10,7 8,8 - - - - - - 1009,3 18 0,0
19.10.2017 10:00:00 9,9 9,0 9,5 31 17 48 26 SSE 1009,1 19 0,0
19.10.2017 09:00:00 10,1 8,7 - 28 15 - - SSE 1009,0 30 0,0
19.10.2017 08:00:00 10,2 9,5 - 26 14 61 33 SSE 1009,0 24 0,4
19.10.2017 07:00:00 10,4 10,0 - 35 19 52 28 ESE 1009,3 1,4 0,4
19.10.2017 06:00:00 10,5 9,3 - 39 21 54 29 ESE 1009,7 12 0,0
19.10.2017 05:00:00 10,4 8,8 - 41 22 55 30 ESE 1010,2 15 0,0
19.10.2017 04:00:00 10,5 9,0 - 41 22 55 30 SE 1010,9 14 0,2
19.10.2017 03:00:00 10,0 9,3 - 29 16 46 25 ESE 1011,6 10 0,0
19.10.2017 02:00:00 10,2 7,9 - 29 16 - - E 1012,3 27 0,0
19.10.2017 01:00:00 9,6 7,0 - 29 16 - - E 1013,0 26 0,0
19.10.2017 00:00:00 9,3 5,5 - 26 14 - - E 1013,6 30 0,0
18.10.2017 23:00:00 9,6 5,2 - 28 15 - - ESE 1014,4 45 0,0
18.10.2017 22:00:00 9,3 6,0 - 24 13 - - E 1015,1 35 0,0
18.10.2017 21:00:00 9,1 5,8 - 24 13 - - E 1015,6 40 0,0
18.10.2017 20:00:00 8,9 5,4 - 22 12 - - E 1015,8 45 0,0
18.10.2017 19:00:00 8,6 5,1 - 24 13 - - E 1016,1 45 0,0
18.10.2017 18:00:00 8,5 5,1 - 21 11 - - E 1016,7 50 0,0
18.10.2017 17:00:00 8,2 4,9 - 16 9 - - E 1017,0 50 0,0
18.10.2017 16:00:00 8,6 5,0 - 21 11 - - E 1017,2 50 0,0
18.10.2017 15:00:00 9,3 5,3 - 16 9 - - E 1017,5 45 0,0
18.10.2017 14:00:00 9,3 5,3 - 18 10 - - ENE 1018,0 45 0,0
18.10.2017 13:00:00 9,0 5,1 - 15 8 - - E 1018,3 45 0,0
18.10.2017 12:00:00 8,9 5,6 - 16 9 - - E - - -
18.10.2017 11:00:00 8,3 6,3 - 13 7 - - NE - - -
18.10.2017 10:00:00 8,4 6,5 9,7 13 7 - - ENE - - 0,0
18.10.2017 09:00:00 7,1 6,4 - 8 4 - - NNE - - 0,0
18.10.2017 08:00:00 6,7 6,1 - 8 4 - - N - - 0,0
18.10.2017 07:00:00 6,0 5,4 - 11 6 - - N 1017,5 45 0,0
18.10.2017 06:00:00 5,8 4,7 - 11 6 - - NNW 1017,6 50 0,0
18.10.2017 05:00:00 7,0 5,5 - 11 6 - - NNE 1017,4 50 0,0
18.10.2017 04:00:00 6,8 5,7 - 11 6 - - N 1017,3 30 0,0
18.10.2017 03:00:00 7,1 5,3 - 11 6 - - N 1016,9 40 0,0
18.10.2017 02:00:00 7,6 4,9 - 15 8 - - N 1016,5 45 0,0
18.10.2017 01:00:00 7,8 5,1 - 18 10 - - N 1016,2 50 0,0
18.10.2017 00:00:00 7,4 5,2 - 18 10 - - NNE 1015,6 50 0,0
17.10.2017 23:00:00 6,9 5,4 - 16 9 - - N 1014,9 50 0,0
17.10.2017 22:00:00 8,3 5,1 - 22 12 - - N 1014,2 30 0,0
17.10.2017 21:00:00 8,2 4,9 - 28 15 - - N 1013,6 40 0,0
17.10.2017 20:00:00 8,4 4,8 - 35 19 48 26 N 1012,3 23 0,0
17.10.2017 19:00:00 8,0 4,3 - 35 19 55 30 NNE 1011,4 29 0,0
17.10.2017 18:00:00 8,3 4,6 - 41 22 57 31 N 1010,0 27 0,0
17.10.2017 17:00:00 8,4 4,4 - 42 23 63 34 N - - 0,0
17.10.2017 16:00:00 9,3 5,5 - 42 23 61 33 N - - 0,0
17.10.2017 15:00:00 9,3 5,6 - 42 23 67 36 N - - 0,0
17.10.2017 14:00:00 9,1 5,7 - 50 27 67 36 NNE 1004,6 15 0,0
17.10.2017 13:00:00 9,5 6,4 - 48 26 67 36 NNE 1003,3 13 0,0
17.10.2017 12:00:00 9,5 6,6 - 52 28 72 39 NE 1002,2 15 0,0
17.10.2017 11:00:00 9,2 6,1 - 57 31 74 40 NE 1001,0 18 0,2
17.10.2017 10:00:00 8,8 6,7 10,0 55 30 74 40 NE 1000,2 11 0,2
17.10.2017 09:00:00 8,6 6,8 - 52 28 78 42 NE 999,9 10 0,0
17.10.2017 08:00:00 8,7 7,3 - 55 30 78 42 NE 999,4 9 1,8
17.10.2017 07:00:00 8,5 7,3 - 55 30 80 43 NE 999,1 3,7 2,0
17.10.2017 06:00:00 8,3 6,9 - 57 31 81 44 ENE 999,2 4,1 2,4
17.10.2017 05:00:00 8,5 7,5 - 54 29 72 39 ENE 999,6 2,9 1,4

tt = Température de l'air
td = dewpoint
tt -20cm = Température de l'air -20cm
ff = Vitesse du vent
fx = gusts
dd = Direction du vent
ppp = reduced air pressure
vv = visibility
rr = Quantités de précipitations

stations d'obs. à proximité